Tracking 35237 objects as of 5-Sep-2026
HD Live streaming from Space Station
objects crossing your sky now

NOAA 17 DEB

Track NOAA 17 DEB now!
10-day predictions


NORAD ID: 48166
Int'l Code: 2002-032G
Launch date: June 24, 2002
Source: United States (US)
Launch site: AIR FORCE WESTERN TEST RANGE (AFWTR)

Note: This is SATELLITE DEBRIS
Your satellite tracking list
Your tracking list is empty




NASA's NSSDC Master Catalog

Two Line Element Set (TLE):
1 48166U 02032G   26247.52200653  .00005286  00000-0  91967-3 0  9992
2 48166  98.7883 267.8430 0008585 274.0756  85.9466 14.68545524288210
Source of the keplerian elements: AFSPC